Location: Bastelaar
(51.0950°N, 3.8602°E)
Time: 16:54:57
(UTC+00:00)

Okean 2 Rocket - Pass Details

Date: 18 November 2025
Orbit: 611 x 635 km, 82.5° (Epoch: 09 December)

Event Time Altitude Azimuth Distance (km) Brightness Sun altitude
Rises 17:11:47 0° 156° (SSE) 2,885 6.4 -12.2°
Reaches altitude 10° 17:14:17 10° 143° (SE) 1,981 5.4 -12.6°
Maximum altitude 17:17:52 25° 88° (E) 1,244 4.0 -13.2°
Enters shadow 17:20:01 18° 47° (NE) 1,548 4.6 -13.5°
